ACA744 YSSY-CYVR

Flight info

Callsign ACA744
Flight time N/A
Altitude 29000
Route SY3/34L 3358S15112E NOBAR B474 BEADS 2919S15556E/N0496F310 2545S15930E 2350S16127E 2237S16300E 2008S16600E 1712S16929E 1551S17055E 1125S17500E 0740S17807E/N0499F330 0507S17950W 0500S17944W 0155S17715W 0144N17410W 0504N17107W 0802N16830W 0937N16704W 1344N16246W/N0487F350 1603N16014W 1724N15840W 1923N15618W 2155N15338W 2302N15235W 2310N15227W 2633N14920W 3029N14526W 3117N14435W 3348N14200W/N0471F370 3740N13808W 4120N13448W 4543N13010W SHARI PEKAA SHARK4
Aircraft B77W/H-SDE1E2E3FGHIJ2J3J4J5M1RWXY/LB1D1

Departure

Time 2026-04-30 03:46
Airport Sydney Kingsford Smith International Airport (YSSY)

Arrival

Time N/A
Airport Vancouver International Airport (CYVR)
Time Latitude Longitude Altitude Speed Heading
2026-04-30 03:18 -33.93562 151.16823 35 ft 0 kts 237°
2026-04-30 03:32 -33.93551 151.16844 33 ft 4 kts 245°
2026-04-30 03:32 -33.93540 151.16874 33 ft 4 kts 246°
2026-04-30 03:32 -33.93530 151.16898 35 ft 4 kts 232°
2026-04-30 03:33 -33.93510 151.16917 35 ft 4 kts 193°
2026-04-30 03:33 -33.93484 151.16919 35 ft 4 kts 171°
2026-04-30 03:33 -33.93458 151.16912 34 ft 4 kts 164°
2026-04-30 03:33 -33.93451 151.16909 35 ft 4 kts 165°
2026-04-30 03:34 -33.93441 151.16906 35 ft 1 kts 168°
2026-04-30 03:34 -33.93440 151.16906 35 ft 0 kts 168°
2026-04-30 03:36 -33.93454 151.16909 35 ft 5 kts 167°
2026-04-30 03:36 -33.93503 151.16960 35 ft 14 kts 105°
2026-04-30 03:37 -33.93513 151.17076 33 ft 14 kts 118°
2026-04-30 03:37 -33.93598 151.17128 34 ft 14 kts 166°
2026-04-30 03:37 -33.93694 151.17154 34 ft 14 kts 167°
2026-04-30 03:37 -33.93790 151.17179 33 ft 14 kts 167°
2026-04-30 03:38 -33.93886 151.17204 33 ft 14 kts 168°
2026-04-30 03:38 -33.93982 151.17228 34 ft 14 kts 169°
2026-04-30 03:38 -33.94079 151.17253 34 ft 14 kts 167°
2026-04-30 03:38 -33.94173 151.17278 33 ft 14 kts 168°
2026-04-30 03:39 -33.94269 151.17303 34 ft 14 kts 167°
2026-04-30 03:39 -33.94365 151.17327 35 ft 14 kts 168°
2026-04-30 03:39 -33.94461 151.17352 35 ft 14 kts 168°
2026-04-30 03:39 -33.94558 151.17377 35 ft 14 kts 167°
2026-04-30 03:40 -33.94653 151.17402 35 ft 14 kts 167°
2026-04-30 03:40 -33.94749 151.17426 35 ft 14 kts 168°
2026-04-30 03:40 -33.94845 151.17452 34 ft 14 kts 167°
2026-04-30 03:40 -33.94941 151.17477 34 ft 14 kts 169°
2026-04-30 03:41 -33.95036 151.17501 34 ft 14 kts 168°
2026-04-30 03:41 -33.95132 151.17525 34 ft 14 kts 168°
2026-04-30 03:41 -33.95228 151.17551 34 ft 14 kts 167°
2026-04-30 03:41 -33.95324 151.17576 34 ft 14 kts 167°
2026-04-30 03:42 -33.95420 151.17601 34 ft 14 kts 167°
2026-04-30 03:42 -33.95516 151.17627 34 ft 14 kts 167°
2026-04-30 03:42 -33.95612 151.17652 35 ft 14 kts 168°
2026-04-30 03:42 -33.95708 151.17676 35 ft 14 kts 168°
2026-04-30 03:43 -33.95803 151.17700 35 ft 14 kts 168°
2026-04-30 03:43 -33.95898 151.17724 35 ft 14 kts 168°
2026-04-30 03:43 -33.95994 151.17749 35 ft 14 kts 168°
2026-04-30 03:43 -33.96090 151.17774 35 ft 14 kts 167°
2026-04-30 03:44 -33.96186 151.17799 35 ft 14 kts 168°
2026-04-30 03:44 -33.96282 151.17824 35 ft 14 kts 168°
2026-04-30 03:44 -33.96377 151.17849 35 ft 14 kts 168°
2026-04-30 03:44 -33.96432 151.17932 35 ft 14 kts 89°
2026-04-30 03:45 -33.96400 151.18040 34 ft 14 kts 31°
2026-04-30 03:45 -33.96302 151.18034 34 ft 15 kts 348°
2026-04-30 03:45 -33.96020 151.17959 32 ft 81 kts 348°
2026-04-30 03:45 -33.95200 151.17746 33 ft 159 kts 348°
2026-04-30 03:46 -33.93901 151.17417 174 ft 208 kts 349°
2026-04-30 03:46 -33.92537 151.17045 1245 ft 193 kts 348°
2026-04-30 03:46 -33.91270 151.16683 2397 ft 184 kts 341°
2026-04-30 03:46 -33.90226 151.15734 2549 ft 198 kts 312°
2026-04-30 03:47 -33.89314 151.14457 2716 ft 211 kts 314°
2026-04-30 03:47 -33.88304 151.13129 2991 ft 219 kts 316°
2026-04-30 03:47 -33.87233 151.11746 3267 ft 234 kts 315°
2026-04-30 03:47 -33.86075 151.10266 3592 ft 247 kts 316°
2026-04-30 03:48 -33.84880 151.08750 4076 ft 253 kts 316°
2026-04-30 03:48 -33.83647 151.07195 4567 ft 259 kts 316°
2026-04-30 03:48 -33.82395 151.05632 5192 ft 260 kts 316°
2026-04-30 03:48 -33.81136 151.04071 5770 ft 261 kts 316°
2026-04-30 03:49 -33.79870 151.02506 6242 ft 269 kts 316°
2026-04-30 03:49 -33.78534 151.00854 6627 ft 280 kts 316°
2026-04-30 03:49 -33.77161 150.99158 7157 ft 285 kts 315°
2026-04-30 03:49 -33.75770 150.97433 7703 ft 289 kts 316°
2026-04-30 03:50 -33.74361 150.95689 8301 ft 293 kts 315°
2026-04-30 03:50 -33.72928 150.93927 8825 ft 297 kts 315°
2026-04-30 03:50 -33.71478 150.92144 9423 ft 299 kts 317°
2026-04-30 03:50 -33.69765 150.90753 9794 ft 301 kts 345°
2026-04-30 03:51 -33.67704 150.90499 10251 ft 301 kts 11°
2026-04-30 03:51 -33.65705 150.91356 10373 ft 314 kts 36°
2026-04-30 03:51 -33.64142 150.93247 10539 ft 330 kts 60°
2026-04-30 03:51 -33.63387 150.95852 10668 ft 345 kts 85°
2026-04-30 03:52 -33.63601 150.98753 10901 ft 356 kts 103°
2026-04-30 03:52 -33.64221 151.01683 11269 ft 366 kts 104°
2026-04-30 03:52 -33.64891 151.04671 11730 ft 375 kts 103°
2026-04-30 03:52 -33.65572 151.07737 12172 ft 384 kts 103°
2026-04-30 03:53 -33.66243 151.10852 12805 ft 387 kts 103°
2026-04-30 03:53 -33.66902 151.14011 13349 ft 393 kts 102°
2026-04-30 03:53 -33.67554 151.17232 13929 ft 398 kts 102°
2026-04-30 03:53 -33.68204 151.20494 14499 ft 403 kts 102°
2026-04-30 03:54 -33.68850 151.23772 15107 ft 404 kts 102°
2026-04-30 03:54 -33.69500 151.27079 15730 ft 407 kts 103°
2026-04-30 03:54 -33.70140 151.30343 16392 ft 407 kts 103°
2026-04-30 03:54 -33.70790 151.33665 16986 ft 410 kts 103°
2026-04-30 03:55 -33.71444 151.37016 17545 ft 413 kts 103°
2026-04-30 03:55 -33.72103 151.40396 18062 ft 418 kts 103°
2026-04-30 03:55 -33.72768 151.43807 18655 ft 420 kts 103°
2026-04-30 03:55 -33.73434 151.47236 19189 ft 422 kts 103°
2026-04-30 03:56 -33.73885 151.49554 19539 ft 423 kts 103°
2026-04-30 03:56 -33.74546 151.52965 20001 ft 426 kts 103°
2026-04-30 03:56 -33.75219 151.56449 20491 ft 429 kts 103°
2026-04-30 03:56 -33.75897 151.59954 20971 ft 432 kts 103°
2026-04-30 03:57 -33.76577 151.63479 21472 ft 434 kts 103°
2026-04-30 03:57 -33.77261 151.67032 21884 ft 437 kts 103°
2026-04-30 03:57 -33.77591 151.70663 22119 ft 442 kts 85°
2026-04-30 03:57 -33.76859 151.74260 22449 ft 448 kts 66°
2026-04-30 03:58 -33.75286 151.77500 22941 ft 450 kts 51°
2026-04-30 03:58 -33.73094 151.80174 23344 ft 451 kts 42°
2026-04-30 03:58 -33.70721 151.82677 23652 ft 457 kts 41°
2026-04-30 03:58 -33.68312 151.85166 24046 ft 460 kts 41°
2026-04-30 03:59 -33.65877 151.87676 24418 ft 462 kts 41°
2026-04-30 03:59 -33.63437 151.90207 24802 ft 464 kts 41°
2026-04-30 03:59 -33.61029 151.92725 25166 ft 466 kts 42°
2026-04-30 03:59 -33.58588 151.95293 25463 ft 470 kts 42°
2026-04-30 04:00 -33.56115 151.97906 25754 ft 473 kts 42°
2026-04-30 04:00 -33.53633 152.00536 26104 ft 475 kts 42°
2026-04-30 04:00 -33.51150 152.03168 26460 ft 477 kts 42°
2026-04-30 04:00 -33.48656 152.05810 26786 ft 480 kts 42°
2026-04-30 04:01 -33.46150 152.08464 27098 ft 482 kts 42°
2026-04-30 04:01 -33.43629 152.11130 27414 ft 485 kts 42°
2026-04-30 04:01 -33.41099 152.13801 27796 ft 486 kts 42°
2026-04-30 04:01 -33.38556 152.16485 28030 ft 490 kts 42°
2026-04-30 04:02 -33.35992 152.19191 28275 ft 493 kts 42°
2026-04-30 04:02 -33.33415 152.21908 28578 ft 494 kts 42°
2026-04-30 04:02 -33.30825 152.24633 28880 ft 496 kts 41°
2026-04-30 04:02 -33.28229 152.27362 29154 ft 498 kts 41°
2026-04-30 04:03 -33.25621 152.30101 29319 ft 501 kts 41°
2026-04-30 04:03 -33.22995 152.32858 29371 ft 504 kts 41°
2026-04-30 04:03 -33.17767 152.38340 29407 ft 501 kts 41°
2026-04-30 04:04 -33.12548 152.43804 29415 ft 497 kts 41°